Regional Weather Roundup
Issued by NWS

Home | Current Version | Previous Version | Text Only | Print | Product List | Glossary Off
Versions: 1 2 3 4 5 6 7 8 9 10 11 12 13 14 15 16 17 18 19 20 21 22 23 24 25 26 27 28 29 30 31 32 33 34 35 36 37 38 39 40 41 42 43 44 45 46 47 48 49 50

000
ASUS43 KMKX 201211
RWRWI

WISCONSIN REGIONAL WEATHER ROUNDUP
NATIONAL WEATHER SERVICE MILWAUKEE/SULLIVAN WI
700 AM CDT SAT SEP 20 2014

NOTE: "FAIR" INDICATES FEW OR NO CLOUDS BELOW 12,000 FEET WITH NO
SIGNIFICANT WEATHER AND/OR OBSTRUCTIONS TO VISIBILITY.

WIZ001-002-006>008-014>016-023>028-201300-
NORTHWEST WISCONSIN

CITY           SKY/WX    TMP DP  RH WIND       PRES   REMARKS
SUPERIOR ARPT  CLOUDY    63  59  89 W13       29.65R
6HR MIN TEMP:  54; 6HR MAX TEMP:  63;

ASHLAND        CLOUDY    65  62  90 W9        29.63R
6HR MIN TEMP:  64; 6HR MAX TEMP:  67;

HAYWARD        CLOUDY    65  63  93 W6        29.67R
6HR MIN TEMP:  63; 6HR MAX TEMP:  68;

SIREN          CLOUDY    63  60  92 W7        29.71R
6HR MIN TEMP:  63; 6HR MAX TEMP:  68;

RICE LAKE      CLOUDY    66  63  90 W12       29.71R
6HR MIN TEMP:  66; 6HR MAX TEMP:  67;

LADYSMITH      CLOUDY    67  64  92 SW10G17   29.70S
6HR MIN TEMP:  64; 6HR MAX TEMP:  68;

EAU CLAIRE     MOCLDY    66  62  87 SW8       29.71R
6HR MIN TEMP:  66; 6HR MAX TEMP:  69;

MENOMONIE      PTSUNNY   67  64  88 SW14      29.71R
6HR MIN TEMP:  67; 6HR MAX TEMP:  71;

NEW RICHMOND   PTCLDY    65  64  97 W8        29.72R
6HR MIN TEMP:  64; 6HR MAX TEMP:  69;

OSCEOLA        PTCLDY    64  63  96 W8        29.75R
6HR MIN TEMP:  64; 6HR MAX TEMP:  70;

$$

WIZ003>005-009-010-017-018-201300-
NORTH CENTRAL WISCONSIN

CITY           SKY/WX    TMP DP  RH WIND       PRES   REMARKS
WOODRUFF       CLOUDY    67  64  89 SW7G16    29.66S
6HR MIN TEMP:  64; 6HR MAX TEMP:  67;

RHINELANDER    CLOUDY    64  62  93 SW10      29.68F
6HR MIN TEMP:  62; 6HR MAX TEMP:  64;

EAGLE RIVER    CLOUDY    65  64  95 SW10      29.65S FOG
6HR MIN TEMP:  63; 6HR MAX TEMP:  65;

LAND O LAKES   CLOUDY    65  64  96 SW7       29.65S FOG
6HR MIN TEMP:  63; 6HR MAX TEMP:  65;

PHILLIPS       CLOUDY    65  64  93 SW8       29.66S
6HR MIN TEMP:  63; 6HR MAX TEMP:  66;

TOMAHAWK       CLOUDY    65  62  89 SW3       29.68F
6HR MIN TEMP:  62; 6HR MAX TEMP:  65;

MEDFORD        CLOUDY    63  61  95 SW8       29.71R
6HR MIN TEMP:  62; 6HR MAX TEMP:  64;

MERRILL        CLOUDY    65  63  93 SW13      29.70S
6HR MIN TEMP:  63; 6HR MAX TEMP:  65;

$$

WIZ029-030-035-036-043>047-201300-
CENTRAL WISCONSIN

CITY           SKY/WX    TMP DP  RH WIND       PRES   REMARKS
WAUSAU         CLOUDY    63  61  93 SW9       29.70R
6HR MIN TEMP:  63; 6HR MAX TEMP:  65; 6HR PCP: TRACE;

MOSINEE        PTCLDY    63  63 100 SW9       29.73R
MARSHFIELD     CLOUDY    63  61  93 SW14      29.73R
6HR MIN TEMP:  63; 6HR MAX TEMP:  66; 6HR PCP:  0.01;

STEVENS POINT  CLOUDY    62  60  94 SW9       29.74S
6HR MIN TEMP:  60; 6HR MAX TEMP:  64; 6HR PCP:  0.04;

WAUPACA        DRIZZLE   65  64  96 SW6       29.74F
6HR MIN TEMP:  64; 6HR MAX TEMP:  67; 6HR PCP:  0.39;

WAUTOMA        CLOUDY    61  61 100 CALM      29.75F FOG
6HR MIN TEMP:  61; 6HR MAX TEMP:  66; 6HR PCP: TRACE;

WISC RAPIDS    CLOUDY    63  61  93 SW5       29.76R
6HR MIN TEMP:  63; 6HR MAX TEMP:  66; 6HR PCP:  0.15;

CAMP DOUGLAS   CLOUDY    64  64 100 W6        29.74F
6HR MIN TEMP:  64; 6HR MAX TEMP:  68; 6HR PCP:  0.54;

$$

WIZ011>013-019>022-031-037>040-048>050-201300-
NORTHEAST WISCONSIN

CITY           SKY/WX    TMP DP  RH WIND       PRES   REMARKS
ANTIGO         CLOUDY    62  60  94 SW13      29.71S
6HR MIN TEMP:  60; 6HR MAX TEMP:  63;

STURGEON BAY   CLOUDY    63  59  88 W16G22    29.69F
6HR MIN TEMP:  61; 6HR MAX TEMP:  64;

GREEN BAY      LGT RAIN  64  62  93 S16G22    29.69F
6HR MIN TEMP:  61; 6HR MAX TEMP:  65; 6HR PCP:  0.39;

MANITOWOC      CLOUDY    65  61  87 W9        29.73R
6HR MIN TEMP:  59; 6HR MAX TEMP:  68; 6HR PCP:  0.19;

APPLETON       MOCLDY    63  61  94 SW13      29.76R
CLINTONVILLE   CLOUDY    63  61  94 SW6       29.71F
OSHKOSH        CLOUDY    64  61  90 W6        29.76R
6HR MIN TEMP:  63; 6HR MAX TEMP:  65; 6HR PCP:  0.11;

$$

WIZ032>034-041-042-053>061-201300-
SOUTHWEST WISCONSIN

CITY           SKY/WX    TMP DP  RH WIND       PRES   REMARKS
LA CROSSE      CLOUDY    65  62  90 VRB3      29.76R
6HR MIN TEMP:  65; 6HR MAX TEMP:  69; 6HR PCP:  0.32;

SPARTA         CLOUDY    63  61  93 SW3       29.77R
6HR MIN TEMP:  63; 6HR MAX TEMP:  68; 6HR PCP:  1.12;

VIROQUA        FAIR      63  63 100 SW10      29.79R
6HR MIN TEMP:  62; 6HR MAX TEMP:  65; 6HR PCP:  1.24;

BOSCOBEL       CLOUDY    66  63  90 VRB3      29.77R
6HR MIN TEMP:  66; 6HR MAX TEMP:  69; 6HR PCP:  0.11;

PRAIRIE DU CHI CLOUDY    64  63  96 W5        29.79R
6HR MIN TEMP:  64; 6HR MAX TEMP:  69; 6HR PCP:  0.32;

PLATTEVILLE    FAIR      64  62  94 S17G24    29.81F
6HR MIN TEMP:  63; 6HR MAX TEMP:  66; 6HR PCP:  0.01;

$$

WIZ056-057-062-063-064-067-068-201300-
SOUTH CENTRAL WISCONSIN

CITY           SKY/WX    TMP DP  RH WIND       PRES   REMARKS
BARABOO/DELLS  CLOUDY    62  60  92 S7        29.78R FOG
6HR MIN TEMP:  62; 6HR MAX TEMP:  66; 6HR PCP:  0.15;

LONE ROCK      CLOUDY    68  62  81 SW7       29.79R
6HR MIN TEMP:  68; 6HR MAX TEMP:  72; 6HR PCP:  0.05;

WATERTOWN      CLOUDY    63  61  94 S13       29.77F
6HR MIN TEMP:  63; 6HR MAX TEMP:  65;

MADISON        CLOUDY    65  61  87 S10G21    29.77F
6HR MIN TEMP:  65; 6HR MAX TEMP:  68; 6HR PCP:  0.03;

MIDDLETON      FAIR      66  64  91 SW10G20   29.80R
6HR MIN TEMP:  65; 6HR MAX TEMP:  68;

MONROE         CLOUDY    61  59  94 S22G28    29.83F FOG
JANESVILLE     PTCLDY    63  61  94 S13       29.84F
$$

WIZ051-052-058>065-066-070>072-201300-
SOUTHEAST WISCONSIN

CITY           SKY/WX    TMP DP  RH WIND       PRES   REMARKS
MILWAUKEE      CLOUDY    64  57  78 SW17      29.80F
6HR MIN TEMP:  64; 6HR MAX TEMP:  66; 6HR PCP: TRACE;

WAUKESHA       CLEAR     61  57  88 S13       29.82F
MILWAUKEE/TIMM PTCLDY    63  57  82 S13G23    29.81F
RACINE         CLOUDY    64  57  78 SW15G22   29.84F
6HR MIN TEMP:  63; 6HR MAX TEMP:  66;

BURLINGTON     CLOUDY    60  58  94 S10       29.84F
6HR MIN TEMP:  60; 6HR MAX TEMP:  63;

KENOSHA        CLOUDY    64  57  78 SW13G22   29.85F
6HR MIN TEMP:  63; 6HR MAX TEMP:  66;

FOND DU LAC    CLOUDY    63  59  87 S13       29.75S
6HR MIN TEMP:  62; 6HR MAX TEMP:  65; 6HR PCP:  0.13;

SHEBOYGAN      CLOUDY    64  59  83 SW12      29.75F
6HR MIN TEMP:  59; 6HR MAX TEMP:  67; 6HR PCP:  0.01;

WEST BEND      CLOUDY    63  55  77 SW9G17    29.77F
JUNEAU         CLOUDY    62  60  91 W8        29.81R
6HR MIN TEMP:  61; 6HR MAX TEMP:  64; 6HR PCP:  0.08;

$$

LSZ147-162-201300-
LAKE SUPERIOR

STATION/POSITION TIME  TEMP    WIND        PRES    WAVE
                       AIR SEA DIR/SP/G            HT/PER
                 (UTC) (F)     (DEG/KT/KT) (MB)    (FT/S)
W MID LAKE BUOY  1150   55 47  220/ 10/ 10 1000.7R   1
DEVILS ISLAND    1200   58     240/ 21/ 24 1001.8R
PORT WING        1100   63     220/  6/  9 1002.4R
SAXON HARBOR     1100   67     210/  3/  7 1002.0
$$

LMZ867-665-643>646-201300-
LAKE MICHIGAN

STATION/POSITION TIME  TEMP    WIND        PRES    WAVE
                       AIR SEA DIR/SP/G            HT/PER
                 (UTC) (F)     (DEG/KT/KT) (MB)    (FT/S)
N MID LAKE BUOY  1150   61 58  220/ 19/ 25 1004.6F   7/ 7
NORTHPORT PIER   1100   63     200/  5/ 16 1005.4F
ALGOMA LAKESHORE 1039          280/ 17/ 29   N/A
KEWAUNEE LAKESHO 1100   65     250/  8/ 12 1005.3F
SHEBOYGAN LAKESH 1200   65 54  230/ 14/ 15 1007.4F
PORT WASHINGTON  1120   66     210/  8/ 18 1008.5F
ATWATER BUOY     1200   64     210/ 17/ 21 1009.9F
MILWAUKEE LAKESH 1100   65     230/ 17/ 21   N/A
S MID LAKE BUOY  1150   65 64  210/ 21/ 25 1011.1F
KENOSHA   LAKESH 1200   66     210/ 13/ 20 1010.5F
$$

TC  - TEMPERATURE IN CELSIUS
VSB - VISIBILITY IN STATUTE MILES
WCI - WIND CHILL INDEX
HX  - HEAT INDEX




USA.gov is the U.S. government's official web portal to all federal, state and local government web resources and services.